[[{"header":{"parameterUnit":"m.s-1","parameterCategory":1,"la1":30.2991,"la2":30.254,"lo1":-89.0895,"lo2":-89.0444,"dy":0.0017,"dx":0.0017,"nx":28,"ny":28,"refTime":"2025-06-16T21:00:00:Z","depth":0,"parameterNumber":2,"parameterNumberName":"U-component_of_WINDS"},"data":[0,0,0,0,0,0,0,0,0,0,0,0,0,0,0,0,0,0,0,0,0,0,0,0,0,0,0,0,0,0,0,0,0,0,0,0,0,0,0,0,0,0,0,0,0,0,0,0,0,0,0,0,0,0,0,0,0,0,-0.2575,-0.2576,0,-0.2654,-0.2655,-0.2656,-0.2693,-0.2693,-0.2692,-0.2692,-0.2777,-0.2779,-0.2782,0,0,0,0,0,0,0,0,0,0,0,0,0,-0.2462,-0.2464,-0.2575,-0.2576,-0.2577,-0.2654,-0.2655,-0.2656,-0.2693,-0.2693,-0.2692,-0.2692,-0.2776,-0.2779,-0.2782,0,0,0,0,0,0,0,0,0,0,0,0,0,-0.2523,-0.2464,-0.2575,-0.2604,-0.2608,-0.2654,-0.2655,-0.2657,-0.2693,-0.2693,-0.2692,-0.2692,-0.2775,-0.2779,-0.2782,-0.2806,0,0,-0.2793,-0.2794,0,0,0,0,0,0,0,0,-0.2519,-0.2527,-0.2599,-0.2602,-0.2606,-0.2663,-0.2646,-0.2707,-0.2693,-0.2661,-0.2692,-0.2692,-0.274,-0.2746,-0.2761,-0.281,-0.2814,-0.2793,-0.2795,-0.2797,-0.2798,0,0,0,0,0,0,0,-0.2515,-0.2524,-0.2607,-0.26,-0.2605,-0.2616,-0.2624,-0.2658,-0.27,-0.2663,-0.2666,-0.2675,-0.2742,-0.2758,-0.2764,-0.2815,-0.2793,-0.2796,-0.2798,-0.28,-0.2892,-0.2893,0,0,0,0,0,0,-0.2505,-0.252,-0.2604,-0.2609,-0.2562,-0.2618,-0.2628,-0.2645,-0.27,-0.2708,-0.2675,-0.2676,-0.2752,-0.2759,-0.2767,-0.2801,-0.2797,-0.28,-0.2802,-0.2892,-0.2892,-0.2893,0,0,0,0,0,0,-0.2503,-0.2512,-0.2601,-0.2565,-0.2578,-0.262,-0.264,-0.2647,-0.2663,-0.2708,-0.2716,-0.2683,-0.2752,-0.2762,-0.2797,-0.2804,-0.2802,-0.2805,-0.2891,-0.2892,-0.2892,-0.2867,0,0,0,0,0,0,-0.2499,-0.2511,-0.2519,-0.2565,-0.2579,-0.2628,-0.264,-0.2649,-0.2669,-0.2671,-0.2718,-0.2726,-0.2753,-0.2791,-0.28,-0.2809,-0.2808,-0.2891,-0.2892,-0.2892,-0.2867,-0.2866,-0.2866,0,0,0,0,0,-0.2495,-0.2509,-0.2519,-0.2529,-0.2589,-0.2628,-0.2636,-0.2665,-0.2669,-0.2678,-0.2708,-0.2725,-0.2802,-0.2795,-0.2805,-0.2814,-0.2891,-0.2891,-0.2892,-0.2868,-0.2867,-0.2866,0,0,0,0,0,0,-0.2462,-0.2515,-0.2527,-0.2556,-0.2587,-0.2634,-0.2646,-0.2663,-0.2694,-0.2696,-0.2732,-0.2743,-0.2775,-0.2799,-0.279,-0.2843,-0.2848,-0.2851,-0.2826,-0.2825,-0.2824,-0.2818,-0.2811,0,0,0,0,0,-0.2459,-0.2483,-0.2529,-0.255,-0.2565,-0.2603,-0.2621,-0.2641,-0.2675,-0.2689,-0.2721,-0.2755,-0.2788,-0.2808,-0.284,-0.2871,-0.2884,-0.2884,-0.2883,-0.2882,-0.2884,-0.2906,-0.2907,-0.2895,-0.2895,-0.2895,0,0,-0.2451,-0.2483,-0.2496,-0.2544,-0.2571,-0.2598,-0.2614,-0.2641,-0.2663,-0.2693,-0.2728,-0.2754,-0.2795,-0.2829,-0.2845,-0.2849,-0.289,-0.2883,-0.2882,-0.2885,-0.2907,-0.2908,-0.2909,-0.2896,-0.2896,-0.2896,0,0,-0.245,-0.2476,-0.2497,-0.2524,-0.2564,-0.259,-0.2595,-0.2641,-0.2658,-0.2694,-0.2719,-0.2746,-0.28,-0.2829,-0.2851,-0.2866,-0.2884,-0.2876,-0.2872,-0.2893,-0.2893,-0.2894,-0.2902,-0.2904,-0.2878,-0.2878,-0.2878,0,-0.2435,-0.2475,-0.2506,-0.2533,-0.2555,-0.2585,-0.2608,-0.2633,-0.2682,-0.2698,-0.2701,-0.2772,-0.2802,-0.2844,-0.2848,-0.2865,-0.2874,-0.287,-0.289,-0.2892,-0.2893,-0.2901,-0.2903,-0.2877,-0.2877,-0.2877,-0.2877,0,-0.2457,-0.2485,-0.2498,-0.2544,-0.2567,-0.2592,-0.2629,-0.265,-0.267,-0.2696,-0.2734,-0.2771,-0.2813,-0.2825,-0.2843,-0.2871,-0.2873,-0.2883,-0.2889,-0.2893,-0.29,-0.2903,-0.2875,-0.2875,-0.2876,-0.2876,0,0,-0.2435,-0.25,-0.2504,-0.2527,-0.2576,-0.2599,-0.2627,-0.2667,-0.2685,-0.2719,-0.2746,-0.2793,-0.2804,-0.2828,-0.2852,-0.287,-0.2883,-0.2879,-0.288,-0.2879,-0.2919,-0.291,-0.2913,-0.2895,-0.2896,-0.2896,-0.2916,0,-0.2442,-0.2491,-0.2522,-0.256,-0.2588,-0.2619,-0.2644,-0.2678,-0.2704,-0.2734,-0.2765,-0.2798,-0.2808,-0.2824,-0.2844,-0.2876,-0.2891,-0.2876,-0.2922,-0.2923,-0.291,-0.2917,-0.2907,-0.2923,-0.2919,-0.2919,-0.2919,0,-0.2455,-0.2488,-0.2529,-0.2577,-0.259,-0.2612,-0.2653,-0.268,-0.2721,-0.2739,-0.2769,-0.2793,-0.2827,-0.2832,-0.2881,-0.287,-0.2891,-0.2911,-0.2913,-0.2918,-0.2921,-0.2923,-0.2929,-0.2932,-0.2924,-0.2924,-0.2923,0,-0.2437,-0.2492,-0.2524,-0.2543,-0.2599,-0.2614,-0.2639,-0.2679,-0.2703,-0.274,-0.2756,-0.2797,-0.2819,-0.2852,-0.2887,-0.2887,-0.2934,-0.2941,-0.2952,-0.2952,-0.296,-0.2959,-0.297,-0.2973,-0.2973,-0.2973,-0.2973,0,-0.2441,-0.2465,-0.2517,-0.2536,-0.2566,-0.2603,-0.2632,-0.2659,-0.2696,-0.2724,-0.2754,-0.278,-0.2825,-0.2858,-0.2887,-0.2925,-0.2935,-0.2952,-0.296,-0.295,-0.2947,-0.2963,-0.2963,-0.2974,-0.2974,-0.2974,-0.2974,0,-0.2424,-0.2459,-0.2497,-0.2548,-0.2562,-0.2582,-0.2627,-0.2649,-0.2679,-0.2714,-0.2725,-0.2771,-0.2812,-0.2851,-0.2905,-0.2925,-0.2963,-0.2973,-0.2949,-0.2953,-0.2963,-0.2962,-0.2985,-0.2991,-0.2989,-0.2989,-0.2989,0,-0.2424,-0.2443,-0.2497,-0.2517,-0.2541,-0.2573,-0.2598,-0.2637,-0.2661,-0.2711,-0.2728,-0.2771,-0.2807,-0.2871,-0.2911,-0.2954,-0.2965,-0.2971,-0.2972,-0.2962,-0.2967,-0.2965,-0.2968,-0.2969,-0.2969,-0.2969,-0.2969,0,-0.242,-0.2438,-0.247,-0.2511,-0.2539,-0.2572,-0.2607,-0.2623,-0.2669,-0.2696,-0.2737,-0.2765,-0.2822,-0.2865,-0.2913,-0.2942,-0.2964,-0.2969,-0.2974,-0.2963,-0.2949,-0.2958,-0.2947,-0.2968,-0.2968,-0.2968,-0.2968,-0.2968,-0.2412,-0.2432,-0.2474,-0.251,-0.2541,-0.2574,-0.2598,-0.2631,-0.2666,-0.2714,-0.2736,-0.2778,-0.2823,-0.289,-0.2919,-0.2955,-0.296,-0.2967,-0.2969,-0.297,-0.2968,-0.2944,-0.2964,-0.2964,-0.2964,-0.2964,-0.2964,0,-0.2411,-0.244,-0.2474,-0.2522,-0.2552,-0.257,-0.2611,-0.2635,-0.2671,-0.2711,-0.2746,-0.2796,-0.2839,-0.2884,-0.293,-0.2951,-0.2962,-0.2962,-0.296,-0.2967,-0.296,-0.2952,-0.2951,-0.2951,-0.2951,-0.2951,-0.2951,-0.2951,-0.2414,-0.2449,-0.2472,-0.2524,-0.2554,-0.2594,-0.2617,-0.2649,-0.268,-0.2734,-0.2769,-0.2798,-0.2841,-0.2892,-0.2933,-0.2946,-0.2962,-0.2958,-0.2974,-0.2966,-0.2967,-0.2968,-0.296,-0.2961,-0.2961,-0.2978,-0.2978,-0.2978]},{"header":{"parameterUnit":"m.s-1","parameterCategory":1,"la1":30.2991,"la2":30.254,"lo1":-89.0895,"lo2":-89.0444,"dy":0.0017,"dx":0.0017,"nx":28,"ny":28,"refTime":"2025-06-16T21:00:00:Z","depth":0,"parameterNumber":3,"parameterNumberName":"V-component_of_WINDS"},"data":[0,0,0,0,0,0,0,0,0,0,0,0,0,0,0,0,0,0,0,0,0,0,0,0,0,0,0,0,0,0,0,0,0,0,0,0,0,0,0,0,0,0,0,0,0,0,0,0,0,0,0,0,0,0,0,0,0,0,4.2579,4.2579,0,4.2575,4.2575,4.2575,4.2573,4.2573,4.2573,4.2573,4.2568,4.2568,4.2568,0,0,0,0,0,0,0,0,0,0,0,0,0,4.2585,4.2585,4.2579,4.2579,4.2579,4.2575,4.2575,4.2575,4.2573,4.2573,4.2573,4.2573,4.2569,4.2568,4.2568,0,0,0,0,0,0,0,0,0,0,0,0,0,4.2582,4.2585,4.2579,4.2577,4.2577,4.2575,4.2575,4.2575,4.2573,4.2573,4.2573,4.2573,4.2569,4.2568,4.2568,4.2567,0,0,4.2568,4.2568,0,0,0,0,0,0,0,0,4.2582,4.2582,4.2578,4.2578,4.2577,4.2574,4.2575,4.2572,4.2573,4.2575,4.2573,4.2573,4.257,4.257,4.2569,4.2567,4.2567,4.2568,4.2568,4.2567,4.2567,0,0,0,0,0,0,0,4.2582,4.2582,4.2577,4.2578,4.2577,4.2577,4.2576,4.2575,4.2572,4.2574,4.2574,4.2574,4.257,4.2569,4.2569,4.2566,4.2568,4.2567,4.2567,4.2567,4.2562,4.2562,0,0,0,0,0,0,4.2583,4.2582,4.2577,4.2577,4.258,4.2577,4.2576,4.2575,4.2572,4.2572,4.2574,4.2574,4.257,4.2569,4.2569,4.2567,4.2567,4.2567,4.2567,4.2563,4.2562,4.2562,0,0,0,0,0,0,4.2583,4.2582,4.2578,4.258,4.2579,4.2577,4.2576,4.2575,4.2574,4.2572,4.2572,4.2573,4.257,4.2569,4.2567,4.2567,4.2567,4.2567,4.2563,4.2563,4.2562,4.2564,0,0,0,0,0,0,4.2583,4.2582,4.2582,4.258,4.2579,4.2576,4.2576,4.2575,4.2574,4.2574,4.2572,4.2571,4.257,4.2568,4.2567,4.2567,4.2567,4.2563,4.2563,4.2562,4.2564,4.2564,4.2564,0,0,0,0,0,4.2583,4.2582,4.2582,4.2581,4.2578,4.2576,4.2576,4.2574,4.2574,4.2574,4.2572,4.2571,4.2567,4.2568,4.2567,4.2567,4.2563,4.2563,4.2562,4.2564,4.2564,4.2564,0,0,0,0,0,0,4.2585,4.2582,4.2581,4.258,4.2578,4.2576,4.2575,4.2574,4.2573,4.2573,4.2571,4.257,4.2569,4.2567,4.2568,4.2565,4.2565,4.2565,4.2566,4.2566,4.2566,4.2566,4.2567,0,0,0,0,0,4.2585,4.2584,4.2581,4.258,4.2579,4.2577,4.2577,4.2575,4.2574,4.2573,4.2571,4.257,4.2568,4.2567,4.2565,4.2564,4.2563,4.2563,4.2563,4.2563,4.2563,4.2562,4.2562,4.2562,4.2562,4.2562,0,0,4.2585,4.2584,4.2583,4.258,4.2579,4.2578,4.2577,4.2575,4.2574,4.2573,4.2571,4.257,4.2568,4.2566,4.2565,4.2565,4.2563,4.2563,4.2563,4.2563,4.2562,4.2562,4.2562,4.2562,4.2562,4.2562,0,0,4.2585,4.2584,4.2583,4.2581,4.2579,4.2578,4.2578,4.2575,4.2574,4.2573,4.2571,4.257,4.2567,4.2566,4.2565,4.2564,4.2563,4.2563,4.2564,4.2563,4.2563,4.2562,4.2562,4.2562,4.2563,4.2563,4.2563,0,4.2586,4.2584,4.2582,4.2581,4.258,4.2578,4.2577,4.2576,4.2573,4.2572,4.2572,4.2569,4.2567,4.2565,4.2565,4.2564,4.2563,4.2564,4.2563,4.2563,4.2563,4.2562,4.2562,4.2563,4.2563,4.2563,4.2563,0,4.2585,4.2583,4.2583,4.258,4.2579,4.2578,4.2576,4.2575,4.2574,4.2572,4.2571,4.2569,4.2567,4.2566,4.2565,4.2564,4.2564,4.2563,4.2563,4.2563,4.2562,4.2562,4.2563,4.2563,4.2563,4.2563,0,0,4.2586,4.2582,4.2582,4.2581,4.2579,4.2577,4.2576,4.2574,4.2573,4.2571,4.257,4.2568,4.2567,4.2566,4.2565,4.2564,4.2563,4.2563,4.2563,4.2563,4.2561,4.2562,4.2562,4.2563,4.2562,4.2562,4.2562,0,4.2585,4.2583,4.2581,4.2579,4.2578,4.2576,4.2575,4.2573,4.2572,4.257,4.2569,4.2567,4.2567,4.2566,4.2565,4.2563,4.2563,4.2563,4.2561,4.2561,4.2562,4.2561,4.2562,4.2561,4.2561,4.2561,4.2561,0,4.2584,4.2583,4.2581,4.2578,4.2578,4.2576,4.2574,4.2573,4.2571,4.257,4.2569,4.2567,4.2566,4.2566,4.2563,4.2564,4.2563,4.2562,4.2562,4.2561,4.2561,4.2561,4.2561,4.2561,4.2561,4.2561,4.2561,0,4.2585,4.2582,4.2581,4.258,4.2577,4.2576,4.2575,4.2573,4.2572,4.257,4.2569,4.2567,4.2566,4.2565,4.2563,4.2563,4.2561,4.256,4.256,4.256,4.2559,4.2559,4.2559,4.2559,4.2559,4.2559,4.2559,0,4.2585,4.2584,4.2581,4.258,4.2579,4.2577,4.2575,4.2574,4.2572,4.2571,4.2569,4.2568,4.2566,4.2564,4.2563,4.2561,4.2561,4.256,4.2559,4.256,4.256,4.2559,4.2559,4.2559,4.2559,4.2559,4.2559,0,4.2586,4.2584,4.2582,4.2579,4.2579,4.2578,4.2575,4.2574,4.2573,4.2571,4.2571,4.2568,4.2566,4.2565,4.2562,4.2561,4.2559,4.2559,4.256,4.256,4.2559,4.2559,4.2558,4.2558,4.2558,4.2558,4.2558,0,4.2586,4.2585,4.2582,4.2581,4.258,4.2578,4.2577,4.2575,4.2574,4.2571,4.257,4.2568,4.2567,4.2564,4.2562,4.256,4.2559,4.2559,4.2559,4.2559,4.2559,4.2559,4.2559,4.2559,4.2559,4.2559,4.2559,0,4.2586,4.2585,4.2583,4.2581,4.258,4.2578,4.2576,4.2576,4.2573,4.2572,4.257,4.2569,4.2566,4.2564,4.2562,4.256,4.2559,4.2559,4.2559,4.2559,4.256,4.2559,4.256,4.2559,4.2559,4.2559,4.2559,4.2559,4.2586,4.2585,4.2583,4.2581,4.2579,4.2578,4.2577,4.2575,4.2573,4.2571,4.257,4.2568,4.2566,4.2563,4.2561,4.256,4.2559,4.2559,4.2559,4.2559,4.2559,4.256,4.2559,4.2559,4.2559,4.2559,4.2559,0,4.2586,4.2584,4.2583,4.258,4.2579,4.2578,4.2576,4.2575,4.2573,4.2571,4.2569,4.2567,4.2565,4.2563,4.2561,4.256,4.2559,4.2559,4.2559,4.2559,4.2559,4.256,4.256,4.256,4.256,4.256,4.256,4.256,4.2586,4.2584,4.2583,4.258,4.2579,4.2577,4.2576,4.2574,4.2573,4.257,4.2568,4.2567,4.2565,4.2563,4.2561,4.256,4.2559,4.2559,4.2559,4.2559,4.2559,4.2559,4.2559,4.2559,4.2559,4.2559,4.2559,4.2559]}]]